Home > Weather > Inverness > Past weeks

Flag for U.S.A. Weather for the Past 2 Weeks in Inverness, Florida, U.S.A.

Now
37 °F

Chilly.


Feels Like: 37 °F
Forecast: 32 / 63 °F
Wind: No wind

Location: The Villages

Current Time: Feb 10, 2016 at 11:35:08 PM

Latest Report: Feb 10, 2016 at 11:15 PM


Visibility: 8 mi

Pressure: 30.17 "Hg

Humidity: 75%

Dew point: 30 °F

Location of InvernessLocation

Historic Weather in Inverness — Graph

°F

Inverness Temperature Yesterday

Maximum temperature yesterday: 57 °F (at 12:15 AM)
Minimum temperature yesterday: 46 °F (at 6:55 AM)
Average temperature yesterday: 53 °F

High & Low Weather Summary for the Past Weeks

 TemperatureHumidityPressure
High86 °F (Feb 3, 3:35 PM)100% (Jan 26, 10:55 PM)30.22 "Hg (Jan 26, 10:55 PM)
Low34 °F (Feb 10, 7:15 AM)17% (Feb 10, 1:55 PM)29.66 "Hg (Jan 28, 3:15 PM)
Average59 °F81%29.97 "Hg
* Reported Jan 26 10:15 PM — Feb 10 10:15 PM, Inverness, Weather by CustomWeather, © 2016

Note: Actual official high and low records may vary slightly from our data, if they occured in-between our weather recording intervals... More about our weather records

Advertising

Inverness Weather History for the Previous 24 Hours

 ConditionsComfort  
Time TempWeatherWind HumidityBarometerVisibility
10:15 PM
Wed, Feb 10
39 °FChilly.No wind65%30.17 "Hg10 mi
9:55 PM39 °FChilly.No wind65%30.18 "Hg10 mi
9:15 PM41 °FQuite cool.No wind61%30.18 "Hg10 mi
8:35 PM43 °FQuite cool.No wind57%30.17 "Hg10 mi
8:15 PM43 °FQuite cool.No wind57%30.17 "Hg10 mi
7:55 PM43 °FQuite cool.7 mph57%30.17 "Hg10 mi
7:15 PM45 °FQuite cool.No wind49%30.15 "Hg10 mi
6:55 PM45 °FQuite cool.8 mph46%30.14 "Hg10 mi
6:35 PM46 °FCool.9 mph43%30.13 "Hg10 mi
6:15 PM46 °FCool.12 mph40%30.13 "Hg10 mi
5:55 PM48 °FCool.7 mph34%30.13 "Hg10 mi
5:35 PM50 °FCool.10 mph35%30.12 "Hg10 mi
5:15 PM50 °FCool.16 mph32%30.11 "Hg10 mi
4:55 PM52 °FCool.14 mph28%30.11 "Hg10 mi
4:35 PM52 °FCool.17 mph24%30.10 "Hg9 mi
4:15 PM54 °FCool.13 mph24%30.09 "Hg10 mi
3:55 PM54 °FCool.14 mph24%30.08 "Hg10 mi
3:35 PM54 °FCool.17 mph24%30.08 "Hg10 mi
3:15 PM54 °FCool.16 mph21%30.07 "Hg10 mi
2:55 PM55 °FRefreshingly cool.20 mph18%30.06 "Hg10 mi
2:35 PM55 °FRefreshingly cool.17 mph19%30.07 "Hg10 mi
2:15 PM57 °FRefreshingly cool.21 mph18%30.07 "Hg10 mi
1:55 PM57 °FRefreshingly cool.21 mph17%30.07 "Hg10 mi
1:35 PM57 °FRefreshingly cool.18 mph20%30.07 "Hg8 mi
1:15 PM57 °FRefreshingly cool.20 mph21%30.08 "Hg10 mi
12:55 PM57 °FRefreshingly cool.23 mph23%30.09 "Hg10 mi
12:35 PM57 °FRefreshingly cool.17 mph25%30.10 "Hg10 mi
12:15 PM55 °FRefreshingly cool.15 mph26%30.11 "Hg10 mi
11:55 AM55 °FRefreshingly cool.14 mph26%30.12 "Hg10 mi
11:35 AM54 °FCool.17 mph28%30.13 "Hg10 mi
11:15 AM54 °FCool.15 mph28%30.14 "Hg10 mi
10:55 AM52 °FCool.12 mph28%30.14 "Hg10 mi
10:35 AM50 °FCool.10 mph32%30.15 "Hg10 mi
10:15 AM50 °FCool.14 mph32%30.15 "Hg7 mi
9:55 AM48 °FCool.12 mph32%30.15 "Hg8 mi
9:35 AM48 °FCool.14 mph32%30.14 "Hg10 mi
9:15 AM46 °FCool.14 mph37%30.13 "Hg10 mi
8:55 AM45 °FQuite cool.7 mph42%30.13 "Hg10 mi
8:35 AM43 °FQuite cool.No wind49%30.12 "Hg10 mi
8:15 AM41 °FQuite cool.No wind57%30.11 "Hg10 mi
7:55 AM37 °FChilly.No wind75%30.10 "Hg10 mi
7:35 AM34 °FChilly.No wind81%30.09 "Hg10 mi
7:15 AM34 °FChilly.No wind87%30.09 "Hg10 mi
6:55 AM36 °FChilly.No wind75%30.08 "Hg10 mi
6:35 AM36 °FChilly.No wind75%30.08 "Hg10 mi
6:15 AM36 °FChilly.No wind81%30.07 "Hg10 mi
5:55 AM36 °FChilly.No wind75%30.06 "Hg10 mi
5:35 AM36 °FChilly.No wind81%30.06 "Hg10 mi
5:15 AM37 °FChilly.No wind70%30.05 "Hg10 mi
4:55 AM37 °FChilly.No wind65%30.05 "Hg10 mi
4:35 AM39 °FChilly.No wind61%30.04 "Hg10 mi
4:15 AM41 °FQuite cool.No wind57%30.04 "Hg10 mi
3:55 AM41 °FQuite cool.No wind57%30.04 "Hg10 mi
3:35 AM43 °FQuite cool.5 mph53%30.04 "Hg10 mi
3:15 AM43 °FQuite cool.5 mph57%30.04 "Hg10 mi
2:55 AM43 °FQuite cool.7 mph57%30.03 "Hg10 mi
2:35 AM41 °FQuite cool.No wind66%30.02 "Hg10 mi
2:15 AM41 °FQuite cool.No wind66%30.02 "Hg10 mi
1:55 AM43 °FQuite cool.No wind61%30.02 "Hg10 mi
1:35 AM43 °FQuite cool.No wind61%30.02 "Hg10 mi
1:15 AM45 °FQuite cool.No wind61%30.02 "Hg10 mi
12:55 AM45 °FQuite cool.No wind61%30.02 "Hg10 mi
12:35 AM45 °FQuite cool.No wind61%30.02 "Hg10 mi
12:15 AM46 °FCool.3 mph57%30.02 "Hg10 mi
11:55 PM
Tue, Feb 9
46 °FCool.3 mph57%30.02 "Hg10 mi
11:15 PM48 °FCool.8 mph58%30.01 "Hg10 mi
Weather by CustomWeather, © 2016

See weather overviewHow to use our weather pages